Temperature
20 19 20 20 20 20 20 20 20 20 20 19 19 19 19 19 19 19 19 18 18 18 18 18 18 18 18 18 18 18 18 18 18 18 18 18 18 17 17 17 17 17 17
20 19 20 20 20 20 20 20 20 20 20 20 19 19 19 19 19 19 19 18 18 18 18 18 18 18 18 18 18 18 18 18 18 18 18 18 18 17 17 17 17 17 17
20 19 20 20 19 19 20 20 20 20 20 20 20 19 19 19 19 19 19 18 18 18 18 18 18 18 18 18 18 18 18 18 18 18 17 17 17 17 17 17 17 17 17
20 19 19 20 19 19 19 20 20 20 20 20 20 19 19 19 19 19 19 18 18 18 18 18 18 18 18 18 18 18 18 18 18 18 17 17 17 17 17 17 17 17 17
20 19 19 20 19 19 19 19 19 20 20 20 20 19 19 19 19 19 19 18 18 18 18 18 18 18 18 18 18 18 18 18 18 17 17 17 17 18 17 17 17 17 17
20 19 19 19 19 19 19 19 19 19 19 19 19 19 19 19 19 19 18 18 18 18 18 18 18 18 18 18 18 18 18 18 18 18 17 17 17 18 17 17 17 17 17
20 20 19 19 19 19 19 19 19 19 19 19 19 19 19 19 18 18 18 18 18 18 18 18 18 18 18 18 18 18 18 18 18 17 17 17 17 18 17 17 17 17 17
20 20 18 19 19 19 19 19 19 19 19 19 19 19 19 19 18 18 18 18 18 18 18 18 18 18 18 18 18 18 18 17 18 18 17 17 17 17 17 17 17 17 17
20 20 18 18 18 18 18 18 19 19 19 19 19 19 19 18 18 18 18 18 18 18 18 18 18 18 18 18 18 18 18 18 18 18 18 17 18 18 17 17 17 17 17
20 20 19 19 18 18 18 18 18 19 19 19 18 18 18 18 18 18 18 18 18 18 18 18 18 18 18 18 18 18 18 18 18 18 18 17 18 18 17 17 17 17 17
19 19 19 19 18 18 18 18 18 18 18 18 18 18 18 17 17 17 17 18 18 18 18 17 17 17 18 18 18 18 18 18 18 18 17 18 18 18 17 17 17 17 17
19 19 18 18 18 18 18 18 18 17 18 17 17 17 17 17 17 17 17 18 18 18 17 17 18 17 17 17 17 18 18 17 18 18 17 18 17 17 17 17 17 17 17
19 18 18 18 18 18 18 18 18 17 17 17 17 17 17 17 17 17 17 17 17 17 17 17 17 17 17 17 17 17 17 18 18 18 18 18 17 17 17 17 17 17 17
18 18 18 18 18 18 18 17 18 17 17 17 17 17 17 17 17 17 17 17 17 17 17 17 17 17 17 17 17 17 17 17 18 18 17 18 17 17 17 17 17 17 17
18 18 18 18 18 18 18 18 17 17 17 17 17 17 17 17 16 16 16 17 17 17 17 17 17 17 17 16 16 16 17 17 17 17 17 17 17 17 17 17 17 17 17
18 17 17 18 18 18 18 17 17 17 17 16 16 16 17 16 16 16 16 16 16 16 16 16 16 16 16 16 16 16 16 16 16 16 17 17 17 17 17 17 17 17 17
17 17 18 18 18 17 17 17 17 17 16 16 16 16 16 16 16 15 15 15 15 15 16 16 16 16 16 16 16 16 16 16 16 16 16 16 17 17 17 17 17 17 17
17 17 17 17 17 17 17 17 16 16 16 16 16 16 16 16 15 15 15 15 15 15 15 15 16 16 16 16 16 16 16 16 16 16 16 16 16 17 17 17 17 17 16
17 17 17 17 17 17 17 17 16 16 16 16 15 15 15 15 15 15 15 15 15 15 15 15 15 16 16 16 16 16 16 16 16 16 16 16 16 16 16 16 16 16 16
17 17 17 17 17 17 17 17 16 16 16 15 15 15 15 15 15 14 14 14 14 14 14 14 14 14 15 15 16 16 16 16 16 16 16 16 16 16 16 16 16 16 16
17 17 17 17 17 17 17 17 16 16 16 15 15 15 15 14 14 14 14 14 14 14 14 14 14 14 15 14 16 16 16 16 16 15 16 16 16 16 16 16 16 16 16
17 17 17 17 17 17 17 17 16 16 15 15 15 15 15 14 14 14 14 14 13 13 13 13 13 14 14 14 15 17 17 17 15 16 15 15 15 16 16 16 15 15 16
17 17 17 17 17 17 17 17 16 16 16 15 15 15 15 14 14 14 14 13 13 13 13 13 13 13 14 14 14 15 17 19 17 16 15 15 15 15 15 15 15 15 15
17 17 17 17 17 17 17 17 16 16 16 16 15 15 15 14 14 14 14 13 13 13 13 13 13 13 13 15 14 14 14 15 16 17 16 15 15 15 15 15 15 15 15
18 18 17 18 18 18 17 17 17 16 16 16 16 15 15 14 14 14 14 13 13 13 13 13 13 13 13 14 14 14 14 14 15 16 17 16 15 15 15 14 15 15 15
18 17 17 18 18 18 17 17 17 16 16 16 16 16 15 15 14 14 14 14 13 13 13 13 12 13 13 13 13 14 14 15 15 15 16 16 16 15 14 14 14 14 14
Wind_Speed
15 18 18 15 15 15 16 16 16 16 16 16 15 14 13 12 11 10 10 9 9 9 9 9 9 8 8 8 7 6 6 5 5 6 8 10 11 12 14 15 15 15 16
18 20 19 16 16 15 16 16 16 16 16 15 15 14 13 12 11 10 9 9 9 9 9 9 8 8 8 8 7 7 6 6 6 7 9 11 12 12 13 12 10 15 15
20 21 21 17 16 16 16 16 16 16 15 15 14 13 12 11 10 9 9 9 9 9 8 8 8 8 8 8 8 7 6 6 6 6 7 10 12 12 12 12 15 16 15
21 22 21 19 17 17 16 16 15 15 15 14 13 12 11 10 10 9 8 8 8 8 8 7 7 8 8 8 7 7 7 7 5 5 7 10 12 13 12 13 15 14 14
20 20 20 20 18 17 16 16 15 15 14 13 12 12 11 10 9 8 8 7 7 7 7 6 6 7 7 7 7 7 6 5 3 5 8 9 11 12 12 13 14 14 13
19 20 21 19 18 17 16 15 15 14 13 12 11 11 9 8 8 7 6 6 6 6 6 5 5 6 6 6 6 6 5 2 8 5 7 8 11 12 12 13 13 13 13
19 18 21 18 17 16 15 14 14 13 12 11 10 9 8 7 6 5 5 5 5 5 5 4 4 4 4 4 5 5 3 2 2 5 6 7 11 12 11 12 13 13 13
17 17 20 17 16 15 15 14 13 12 11 10 9 8 7 5 4 4 3 3 3 4 4 4 4 4 3 3 3 4 2 6 3 4 4 8 12 10 11 11 12 12 12
16 15 17 18 16 14 13 12 12 11 10 9 7 6 5 4 3 2 2 3 3 3 3 4 4 4 3 3 2 2 1 5 3 4 4 7 11 9 10 11 11 12 12
14 13 14 15 15 14 13 12 11 10 9 8 6 5 4 4 4 3 5 4 4 4 4 4 5 5 4 4 3 3 2 6 3 4 4 9 11 9 10 10 11 11 11
12 11 12 13 12 12 12 13 11 10 8 8 7 5 4 4 4 5 2 1 5 6 5 5 5 5 6 7 5 4 6 6 3 2 3 11 10 9 10 10 10 11 11
14 13 10 11 11 11 10 11 9 8 7 4 3 3 2 1 2 3 3 3 4 6 6 6 5 7 9 8 9 9 7 6 4 4 6 10 9 10 10 11 11 11 11
14 12 11 10 10 10 8 8 6 5 6 4 3 1 0 2 2 3 3 4 5 6 7 7 8 8 7 5 5 7 5 6 5 5 7 10 9 10 10 11 11 11 12
13 12 11 10 9 8 7 7 6 5 4 4 4 1 1 1 2 2 3 3 3 3 3 5 5 6 6 6 6 5 6 7 6 5 6 9 8 9 10 12 13 13 13
12 11 10 10 9 8 7 6 6 5 5 5 4 4 2 1 2 2 1 2 3 2 3 4 5 4 5 6 6 6 6 6 6 6 5 9 8 9 10 12 13 14 14
12 11 10 9 9 9 7 6 5 6 5 5 5 5 4 3 3 2 1 2 2 2 2 2 2 3 3 3 4 4 5 5 6 6 6 8 9 8 9 11 12 14 14
12 11 10 9 9 9 8 8 7 6 6 5 6 5 4 4 3 2 2 1 2 1 1 1 2 2 3 3 3 3 4 4 4 5 6 6 8 11 11 11 12 13 14
10 10 10 9 10 9 8 8 7 6 6 6 5 5 5 4 3 2 2 2 2 2 1 0 2 2 1 2 2 3 3 3 4 4 6 6 6 7 11 13 12 13 14
10 10 10 9 10 9 9 8 8 7 5 5 5 4 4 3 3 2 3 3 1 1 1 1 1 2 2 2 3 3 3 3 3 5 4 6 6 7 7 11 13 14 14
10 10 10 10 10 10 9 8 7 6 6 5 4 4 3 3 2 2 3 3 2 2 2 2 1 2 3 3 4 2 3 2 3 3 5 5 5 8 9 8 10 13 17
9 10 11 11 11 10 8 8 7 7 6 5 5 5 3 2 3 2 3 3 2 3 3 2 2 0 1 2 4 4 4 3 2 2 3 3 3 4 5 6 9 8 10
11 11 11 11 11 11 8 6 6 5 5 5 4 5 4 3 2 2 2 2 3 2 2 2 2 2 1 1 3 3 4 4 3 1 2 1 1 2 3 4 5 6 9
12 12 11 11 11 10 10 7 6 5 5 5 6 6 5 5 3 1 1 2 1 1 3 2 2 2 1 1 2 3 3 2 3 4 1 1 0 1 0 1 2 3 6
13 12 11 11 11 11 11 10 10 7 6 5 5 5 6 6 5 4 3 2 0 1 2 0 3 2 2 0 1 1 3 4 3 3 5 3 1 0 2 2 1 1 2
13 12 11 11 12 11 11 10 10 8 6 5 5 5 6 6 7 6 5 4 3 1 1 2 1 2 1 2 1 0 0 1 4 4 2 2 3 2 1 2 1 2 2
13 12 12 12 12 12 12 11 11 9 7 6 6 6 7 6 6 7 7 6 5 3 2 2 1 1 1 2 2 1 2 2 2 3 4 5 4 3 2 3 3 2 2
Wind_Direction
158 150 144 149 143 138 134 130 127 127 128 128 128 127 126 125 122 119 115 110 104 99 94 90 89 89 87 83 79 76 75 76 94 111 119 124 129 130 132 134 137 123 124
152 148 147 151 147 143 137 131 129 129 129 128 127 127 126 124 122 117 112 107 101 96 92 90 88 88 84 81 76 73 76 79 93 114 126 130 129 131 133 135 127 122 130
150 148 153 154 150 146 140 136 133 132 131 131 130 129 127 125 122 117 111 105 99 95 91 88 87 85 82 77 72 69 75 84 95 123 153 135 128 130 131 123 119 128 129
152 151 156 153 153 150 145 141 138 136 134 133 132 130 129 126 123 118 113 106 101 97 93 90 87 85 80 74 69 66 74 89 108 191 150 123 130 130 132 129 129 130 128
152 152 149 155 154 152 149 145 142 140 139 137 135 133 132 131 128 125 121 114 107 102 99 94 90 86 78 72 68 66 78 99 172 226 102 111 117 130 135 134 133 130 131
152 155 150 157 155 153 151 148 145 143 142 140 138 136 134 133 132 128 129 124 118 114 109 103 99 93 84 72 66 65 82 137 231 115 108 120 122 136 140 138 138 136 135
157 156 151 158 155 153 151 149 146 145 142 139 138 138 137 137 136 134 132 133 128 128 127 122 118 107 95 79 65 64 83 277 272 105 120 119 118 138 145 142 142 141 140
158 156 147 153 153 153 151 149 147 144 141 139 141 142 145 145 144 144 152 157 153 150 150 150 147 141 126 102 75 63 63 279 152 115 123 115 121 144 147 145 145 145 144
159 156 152 160 158 154 149 149 145 142 140 139 140 141 146 150 158 170 193 204 204 192 183 180 178 177 168 149 124 90 63 300 278 119 131 116 132 151 154 154 151 150 149
160 158 156 165 160 163 157 146 140 138 137 135 134 137 149 175 190 197 222 211 230 226 215 205 205 201 195 186 175 162 191 251 240 151 132 122 142 163 164 164 161 158 156
160 162 166 159 158 164 160 148 149 143 140 152 151 146 200 219 206 202 209 188 236 233 228 220 216 217 208 197 193 190 221 240 194 160 116 120 157 176 177 175 172 168 166
163 164 162 158 161 166 154 148 156 157 149 164 134 157 209 265 273 267 145 227 244 234 224 221 220 222 227 209 187 200 224 232 229 192 140 139 173 190 190 186 184 182 179
163 161 163 161 165 161 150 152 150 141 138 141 113 99 25 278 261 258 248 213 224 223 223 203 216 227 229 231 223 218 231 234 226 214 150 154 185 200 199 194 194 194 191
161 165 164 158 158 157 151 143 146 144 143 125 108 72 43 348 315 316 285 284 255 237 230 230 224 224 236 232 229 231 226 240 233 219 146 157 190 203 204 200 200 202 201
164 165 161 158 152 147 143 148 140 136 130 114 98 74 31 22 8 347 336 322 288 274 230 227 231 218 223 224 228 220 228 241 249 241 179 161 190 205 209 207 206 205 206
169 165 159 159 156 152 148 140 136 132 123 112 98 78 49 48 38 360 354 337 319 306 318 273 239 222 225 224 231 228 234 232 229 235 234 181 190 204 213 213 210 207 209
167 164 160 161 158 157 149 146 142 137 129 114 100 89 68 58 47 9 27 338 360 339 291 255 237 229 223 215 218 223 229 235 220 220 234 229 202 197 207 214 212 211 211
165 163 163 166 160 156 147 147 142 137 127 118 111 99 75 60 42 7 27 40 2 317 291 241 264 242 238 244 225 239 218 213 220 224 228 228 234 220 199 202 210 213 214
165 164 166 164 161 157 150 148 139 137 133 130 121 103 92 74 51 33 43 39 340 354 336 313 16 298 262 277 244 221 242 233 227 229 241 238 233 244 234 188 204 214 215
161 165 165 164 163 159 154 150 147 148 151 148 135 115 117 97 66 32 79 45 7 42 32 29 11 344 303 287 276 255 255 254 249 243 250 239 233 235 237 227 214 213 213
161 168 171 171 166 165 162 165 164 165 166 163 158 145 147 116 100 30 56 72 13 50 20 4 332 192 290 311 263 234 215 227 246 242 259 276 247 244 242 230 235 233 211
171 171 175 175 172 174 167 166 169 164 176 171 169 162 174 161 157 130 52 68 60 76 60 33 359 330 24 336 292 257 218 185 204 205 208 216 309 259 235 225 235 232 246
178 177 179 178 176 179 169 170 163 168 184 178 188 187 189 188 183 148 134 52 56 23 76 37 4 352 3 61 352 304 282 246 160 164 167 137 90 336 255 253 246 243 241
182 179 178 180 181 179 180 187 188 194 194 191 198 186 186 198 198 188 182 163 171 59 89 102 55 360 313 351 108 10 347 351 294 187 189 173 150 347 7 315 300 220 257
181 180 182 184 185 185 193 195 201 209 207 194 195 183 202 196 203 202 197 190 194 188 89 43 63 352 344 339 349 312 228 232 269 285 241 222 221 218 271 274 317 333 328
183 185 185 184 188 190 196 201 210 214 215 210 208 201 208 201 203 202 203 202 208 200 173 183 180 168 4 5 324 310 283 278 274 276 274 259 262 246 270 275 261 276 309
Height
1543 1545 1546 1548 1551 1553 1555 1557 1558 1559 1560 1561 1562 1563 1563 1564 1565 1565 1566 1566 1567 1567 1567 1568 1568 1568 1568 1568 1568 1568 1568 1568 1568 1568 1568 1569 1569 1570 1571 1572 1573 1574 1574
1541 1544 1546 1549 1552 1554 1556 1558 1559 1560 1561 1562 1563 1564 1565 1566 1566 1567 1567 1568 1568 1569 1569 1569 1569 1569 1569 1569 1569 1569 1569 1569 1569 1569 1570 1570 1571 1572 1573 1574 1576 1576 1576
1541 1544 1547 1550 1553 1556 1558 1559 1561 1562 1563 1564 1565 1565 1566 1567 1568 1568 1569 1569 1570 1570 1570 1570 1571 1571 1571 1571 1571 1571 1571 1571 1571 1571 1572 1573 1573 1574 1575 1575 1577 1578 1578
1542 1545 1548 1551 1554 1557 1559 1561 1562 1563 1564 1565 1566 1567 1567 1568 1569 1569 1570 1571 1571 1571 1572 1572 1572 1572 1572 1572 1572 1572 1573 1573 1573 1574 1576 1576 1576 1576 1577 1577 1578 1580 1581
1543 1547 1549 1552 1555 1558 1560 1562 1563 1564 1565 1566 1567 1568 1568 1569 1570 1570 1571 1572 1572 1572 1573 1573 1573 1574 1574 1574 1574 1574 1575 1575 1575 1577 1578 1578 1578 1578 1578 1579 1580 1582 1583
1544 1548 1550 1553 1556 1559 1561 1563 1564 1565 1566 1567 1568 1569 1569 1570 1571 1571 1572 1573 1573 1573 1574 1574 1575 1575 1575 1576 1576 1576 1576 1577 1578 1580 1580 1580 1580 1579 1580 1581 1582 1584 1585
1546 1550 1552 1554 1557 1560 1562 1563 1565 1566 1567 1568 1569 1570 1570 1571 1572 1572 1573 1574 1574 1574 1575 1575 1576 1576 1577 1577 1578 1578 1578 1579 1581 1582 1581 1582 1581 1581 1582 1583 1584 1585 1586
1547 1551 1553 1555 1558 1561 1563 1564 1566 1567 1568 1569 1570 1571 1571 1572 1573 1573 1574 1574 1575 1575 1575 1576 1576 1577 1578 1578 1579 1579 1580 1580 1583 1584 1584 1584 1582 1583 1584 1584 1585 1587 1588
1549 1552 1554 1557 1558 1561 1563 1565 1566 1568 1569 1570 1571 1571 1572 1572 1573 1573 1574 1574 1575 1576 1576 1576 1577 1577 1578 1579 1579 1580 1581 1581 1584 1585 1585 1585 1583 1584 1585 1586 1587 1588 1590
1549 1553 1555 1558 1560 1562 1564 1565 1567 1568 1569 1570 1571 1572 1572 1573 1573 1574 1574 1575 1575 1575 1576 1576 1577 1577 1578 1579 1579 1580 1581 1582 1585 1586 1586 1585 1584 1585 1586 1587 1588 1590 1591
1549 1552 1556 1558 1560 1563 1565 1565 1567 1568 1570 1571 1572 1572 1573 1574 1575 1574 1574 1574 1575 1575 1576 1576 1576 1577 1577 1578 1579 1580 1581 1584 1586 1586 1586 1585 1585 1586 1587 1588 1589 1590 1591
1548 1552 1555 1558 1560 1563 1565 1566 1568 1570 1570 1572 1572 1573 1573 1573 1574 1574 1573 1574 1574 1574 1574 1575 1575 1576 1577 1579 1579 1579 1582 1583 1585 1586 1586 1585 1586 1586 1587 1588 1589 1590 1592
1548 1551 1554 1557 1559 1563 1564 1566 1568 1570 1570 1571 1571 1572 1572 1573 1573 1574 1574 1574 1573 1573 1574 1574 1575 1576 1577 1578 1579 1580 1581 1583 1584 1585 1585 1584 1585 1586 1587 1588 1589 1591 1592
1547 1551 1554 1556 1558 1561 1564 1566 1568 1570 1571 1572 1571 1571 1572 1572 1572 1572 1572 1573 1573 1573 1573 1573 1574 1575 1575 1576 1577 1578 1579 1581 1583 1584 1583 1583 1584 1586 1587 1588 1589 1590 1592
1547 1550 1553 1555 1558 1561 1563 1566 1568 1569 1571 1571 1571 1571 1571 1572 1571 1571 1571 1570 1572 1572 1572 1572 1572 1573 1574 1574 1575 1576 1577 1579 1580 1582 1582 1581 1583 1584 1586 1587 1588 1589 1591
1546 1549 1552 1555 1558 1561 1563 1566 1567 1569 1570 1571 1571 1570 1570 1571 1570 1571 1571 1570 1571 1571 1571 1571 1572 1572 1573 1573 1574 1575 1575 1577 1577 1578 1580 1580 1581 1582 1584 1585 1587 1588 1589
1546 1549 1551 1554 1558 1561 1563 1566 1568 1569 1570 1571 1570 1570 1570 1571 1570 1570 1570 1570 1570 1570 1569 1570 1571 1571 1572 1572 1573 1573 1574 1575 1576 1576 1578 1579 1580 1580 1581 1583 1584 1586 1587
1545 1548 1551 1555 1558 1561 1563 1565 1568 1569 1570 1571 1571 1571 1570 1570 1569 1570 1570 1570 1569 1570 1570 1570 1571 1571 1571 1572 1572 1573 1573 1573 1574 1574 1576 1577 1578 1580 1580 1581 1582 1584 1585
1544 1547 1551 1554 1557 1561 1563 1565 1567 1568 1569 1571 1571 1572 1571 1570 1570 1570 1570 1569 1569 1570 1570 1570 1570 1571 1571 1571 1572 1572 1573 1573 1573 1574 1575 1575 1576 1577 1578 1578 1579 1581 1582
1543 1547 1550 1553 1557 1560 1562 1564 1566 1568 1569 1571 1571 1571 1571 1571 1570 1570 1570 1568 1570 1570 1569 1569 1569 1568 1569 1570 1571 1571 1572 1572 1572 1573 1573 1574 1574 1575 1576 1577 1577 1578 1579
1542 1546 1549 1553 1556 1559 1561 1564 1566 1568 1569 1570 1571 1571 1571 1571 1570 1570 1571 1568 1569 1569 1568 1569 1569 1569 1569 1569 1570 1571 1571 1571 1571 1571 1572 1573 1573 1573 1574 1574 1575 1576 1577
1541 1544 1548 1552 1555 1558 1561 1563 1565 1568 1569 1570 1571 1570 1571 1570 1570 1570 1569 1570 1569 1568 1568 1568 1567 1569 1569 1568 1569 1570 1570 1571 1570 1571 1571 1571 1572 1572 1572 1572 1573 1573 1574
1540 1543 1547 1550 1554 1557 1560 1562 1565 1566 1568 1569 1570 1570 1570 1570 1570 1570 1569 1569 1568 1570 1569 1567 1567 1568 1569 1569 1568 1569 1569 1567 1569 1570 1570 1570 1570 1571 1571 1571 1571 1571 1572
1538 1542 1546 1549 1552 1555 1558 1562 1564 1566 1568 1569 1570 1570 1569 1569 1569 1569 1569 1568 1568 1569 1567 1568 1567 1567 1567 1569 1568 1568 1568 1568 1568 1568 1570 1570 1569 1569 1569 1570 1570 1570 1569
1537 1540 1544 1547 1550 1554 1557 1560 1562 1565 1567 1568 1568 1568 1568 1568 1568 1568 1568 1568 1567 1568 1567 1566 1566 1566 1567 1568 1569 1569 1568 1568 1569 1569 1568 1569 1569 1569 1568 1568 1568 1568 1568
1536 1539 1542 1545 1548 1552 1555 1558 1560 1563 1565 1566 1566 1567 1567 1567 1567 1567 1567 1566 1567 1567 1566 1566 1565 1566 1566 1566 1567 1568 1568 1568 1568 1568 1568 1567 1567 1567 1566 1566 1566 1566 1566